Location: Goudex
(43.3760°N, 0.9543°E)
Time: 12:53:03
(UTC+00:00)

SL-16 R/B - Pass Details

Date: 20 November 2019
Orbit: 842 x 846 km, 71.0° (Epoch: 15 December)

Event Time Altitude Azimuth Distance (km) Brightness Sun altitude
Exits shadow 04:13:16 49° 12° (NNE) 1,083 2.7 -29.2°
Maximum altitude 04:14:31 61° 62° (ENE) 954 2.6 -29.0°
Drops below altitude 10° 04:20:07 10° 143° (SE) 2,461 5.0 -28.0°
Sets 04:22:35 0° 147° (SSE) 3,392 5.8 -27.5°
